Merrill, WI

10:28 AM CST on December 07, 2016 (GMT -0600)
Merrill Municipal

Weather History for KRRL - March, 2013

Change the Weather History Date:

Tuesday, March 5, 2013

  Actual Average Record
Temperature  
Mean Temperature 26 °F -  
Max Temperature 30 °F 34 °F 58 °F (1910)
Min Temperature 23 °F 13 °F -33 °F (1917)
Degree Days  
Heating Degree Days 38    
Moisture  
Dew Point 17 °F    
Average Humidity 68    
Maximum Humidity 86    
Minimum Humidity 51    
Precipitation  
Precipitation 0.00 in - - ()
Sea Level Pressure  
Sea Level Pressure 30.05 in    
Wind  
Wind Speed 8 mph (ENE)    
Max Wind Speed 16 mph    
Max Gust Speed 21 mph    
Visibility 10 miles    
Events      
Averages and records for this station are not official NWS values.
T = Trace of Precipitation, MM = Missing Value Source: NWS Daily Summary

Daily Weather History Graph

Daily Weather History Graph

Search for Another Location

Airport or City:

Trip Planner

Search our weather history database for the weather conditions in past years. The results will help you decide how hot, cold, wet, or windy it might be!

Date:

Astronomy

Mar. 05, 2013 Rise Set
Actual Time 6:29 AM CST 5:51 PM CST
Civil Twilight 5:59 AM CST 6:21 PM CST
Nautical Twilight 5:25 AM CST 6:55 PM CST
Astronomical Twilight 4:51 AM CST 7:29 PM CST
Moon 1:53 AM CST (3/5) 11:18 AM CST (3/5)
Length of Visible Light 12h 21m
Length of Day
11h 22m
Last Quarter, 40% of the Moon is Illuminated
Mar 5
Last Quarter
Mar 11
New
Mar 19
First Quarter
Mar 27
Full
Apr 2
Last Quarter

Hourly Weather History & Observations

Time (CST) Temp. Windchill Dew Point Humidity Pressure Visibility Wind Dir Wind Speed Gust Speed Precip Events Conditions
12:35 AM 26.6 °F 22.6 °F 14.0 °F 59% 30.08 in 10.0 mi ESE 3.5 mph - N/A   Overcast
12:55 AM 26.6 °F 20.0 °F 12.2 °F 55% 30.08 in 10.0 mi ESE 5.8 mph - N/A   Overcast
1:15 AM 26.6 °F 20.0 °F 12.2 °F 55% 30.08 in 10.0 mi ESE 5.8 mph - N/A   Overcast
1:35 AM 24.8 °F 17.9 °F 12.2 °F 59% 30.07 in 10.0 mi East 5.8 mph - N/A   Overcast
1:55 AM 24.8 °F 16.9 °F 12.2 °F 59% 30.06 in 10.0 mi East 6.9 mph - N/A   Overcast
2:15 AM 24.8 °F 19.1 °F 12.2 °F 59% 30.06 in 10.0 mi East 4.6 mph - N/A   Overcast
2:55 AM 24.8 °F 15.3 °F 12.2 °F 59% 30.05 in 10.0 mi East 9.2 mph - N/A   Overcast
3:15 AM 24.8 °F 16.1 °F 10.4 °F 54% 30.04 in 10.0 mi East 8.1 mph - N/A   Overcast
3:35 AM 23.0 °F 13.9 °F 10.4 °F 59% 30.03 in 10.0 mi East 8.1 mph - N/A   Overcast
3:55 AM 23.0 °F 13.1 °F 10.4 °F 59% 30.02 in 10.0 mi East 9.2 mph - N/A   Overcast
4:15 AM 23.0 °F 13.1 °F 10.4 °F 59% 30.02 in 10.0 mi East 9.2 mph - N/A   Overcast
4:55 AM 23.0 °F 12.4 °F 12.2 °F 63% 30.01 in 10.0 mi East 10.4 mph - N/A   Overcast
5:15 AM 23.0 °F 13.9 °F 12.2 °F 63% 30.00 in 10.0 mi East 8.1 mph - N/A   Overcast
5:35 AM 23.0 °F 15.8 °F 12.2 °F 63% 30.00 in 10.0 mi East 5.8 mph - N/A   Overcast
6:15 AM 23.0 °F 15.8 °F 14.0 °F 68% 30.00 in 10.0 mi East 5.8 mph - N/A   Overcast
6:55 AM 23.0 °F 17.0 °F 15.8 °F 74% 30.00 in 10.0 mi East 4.6 mph - N/A   Overcast
7:15 AM 23.0 °F 15.8 °F 15.8 °F 74% 30.00 in 10.0 mi East 5.8 mph - N/A   Overcast
7:35 AM 23.0 °F 15.8 °F 15.8 °F 74% 30.01 in 10.0 mi East 5.8 mph - N/A   Overcast
7:55 AM 24.8 °F 19.1 °F 17.6 °F 74% 30.02 in 10.0 mi East 4.6 mph - N/A   Overcast
8:15 AM 24.8 °F 20.5 °F 17.6 °F 74% 30.03 in 10.0 mi East 3.5 mph - N/A   Overcast
8:35 AM 24.8 °F 19.1 °F 17.6 °F 74% 30.03 in 10.0 mi East 4.6 mph - N/A   Overcast
8:55 AM 26.6 °F 22.6 °F 17.6 °F 69% 30.04 in 10.0 mi ESE 3.5 mph - N/A   Overcast
9:15 AM 26.6 °F 19.1 °F 17.6 °F 69% 30.04 in 10.0 mi ENE 6.9 mph - N/A   Overcast
9:55 AM 26.6 °F 20.0 °F 19.4 °F 74% 30.05 in 10.0 mi East 5.8 mph - N/A   Overcast
10:15 AM 26.6 °F 16.2 °F 19.4 °F 74% 30.04 in 10.0 mi East 11.5 mph - N/A   Overcast
10:35 AM 28.4 °F 19.7 °F 19.4 °F 69% 30.04 in 10.0 mi East 9.2 mph - N/A   Overcast
10:55 AM 28.4 °F 20.4 °F 17.6 °F 64% 30.04 in 10.0 mi East 8.1 mph - N/A   Overcast
11:15 AM 28.4 °F 19.7 °F 17.6 °F 64% 30.03 in 10.0 mi East 9.2 mph - N/A   Overcast
11:35 AM 28.4 °F 21.2 °F 17.6 °F 64% 30.03 in 10.0 mi East 6.9 mph 16.1 mph N/A   Overcast
11:55 AM 28.4 °F 17.5 °F 15.8 °F 59% 30.02 in 10.0 mi ENE 13.8 mph - N/A   Overcast
12:15 PM 28.4 °F 19.7 °F 17.6 °F 64% 30.01 in 10.0 mi ENE 9.2 mph - N/A   Overcast
12:55 PM 28.4 °F 17.5 °F 15.8 °F 59% 29.99 in 10.0 mi ENE 13.8 mph 20.7 mph N/A   Overcast
1:15 PM 30.2 °F 19.3 °F 17.6 °F 60% 29.98 in 10.0 mi ENE 15.0 mph - N/A   Overcast
1:35 PM 30.2 °F 20.8 °F 17.6 °F 60% 29.98 in 10.0 mi ENE 11.5 mph 17.3 mph N/A   Overcast
1:55 PM 30.2 °F 22.6 °F 17.6 °F 60% 29.99 in 10.0 mi ENE 8.1 mph - N/A   Overcast
2:15 PM 30.2 °F 21.3 °F 17.6 °F 60% 29.99 in 10.0 mi ENE 10.4 mph 17.3 mph N/A   Overcast
2:35 PM 30.2 °F 22.6 °F 17.6 °F 60% 29.99 in 10.0 mi NNE 8.1 mph - N/A   Overcast
2:55 PM 30.2 °F 21.3 °F 17.6 °F 60% 30.00 in 10.0 mi NNE 10.4 mph 16.1 mph N/A   Overcast
3:15 PM 30.2 °F 22.6 °F 17.6 °F 60% 30.01 in 7.0 mi NE 8.1 mph - N/A   Overcast
3:35 PM 28.4 °F 17.0 °F 17.6 °F 64% 30.01 in 10.0 mi NE 15.0 mph - N/A   Overcast
3:55 PM 28.4 °F 20.4 °F 17.6 °F 64% 30.02 in 10.0 mi North 8.1 mph - N/A   Overcast
4:15 PM 30.2 °F 22.6 °F 14.0 °F 51% 30.02 in 10.0 mi NNE 8.1 mph - N/A   Overcast
4:35 PM 30.2 °F 21.3 °F 14.0 °F 51% 30.03 in 10.0 mi NNE 10.4 mph 16.1 mph N/A   Overcast
4:55 PM 30.2 °F 21.3 °F 15.8 °F 55% 30.04 in 10.0 mi NE 10.4 mph 16.1 mph N/A   Overcast
5:15 PM 30.2 °F 19.8 °F 17.6 °F 60% 30.04 in 10.0 mi NNE 13.8 mph - N/A   Overcast
5:35 PM 28.4 °F 20.4 °F 21.2 °F 74% 30.05 in 10.0 mi NE 8.1 mph - N/A   Overcast
5:55 PM 28.4 °F 19.7 °F 21.2 °F 74% 30.06 in 7.0 mi NNE 9.2 mph 16.1 mph N/A   Overcast
6:15 PM 28.4 °F 16.6 °F 21.2 °F 74% 30.07 in 7.0 mi NNE 16.1 mph - N/A   Overcast
6:35 PM 28.4 °F 18.0 °F 21.2 °F 74% 30.07 in 10.0 mi NNE 12.7 mph 17.3 mph N/A   Overcast
6:55 PM 26.6 °F 16.8 °F 19.4 °F 74% 30.08 in 10.0 mi NNE 10.4 mph 16.1 mph N/A   Overcast
7:15 PM 26.6 °F 16.8 °F 19.4 °F 74% 30.09 in 10.0 mi NNE 10.4 mph - N/A   Overcast
7:35 PM 26.6 °F 16.2 °F 19.4 °F 74% 30.09 in 10.0 mi NNE 11.5 mph - N/A   Overcast
7:55 PM 26.6 °F 15.2 °F 19.4 °F 74% 30.09 in 10.0 mi NNE 13.8 mph - N/A   Overcast
8:15 PM 26.6 °F 15.7 °F 19.4 °F 74% 30.10 in 10.0 mi NNE 12.7 mph 17.3 mph N/A   Overcast
8:35 PM 24.8 °F 14.6 °F 19.4 °F 80% 30.10 in 10.0 mi NE 10.4 mph 18.4 mph N/A   Overcast
8:55 PM 24.8 °F 16.1 °F 19.4 °F 80% 30.11 in 10.0 mi NNE 8.1 mph - N/A   Overcast
9:15 PM 24.8 °F 16.9 °F 19.4 °F 80% 30.11 in 10.0 mi NNE 6.9 mph - N/A   Overcast
9:35 PM 24.8 °F 15.3 °F 19.4 °F 80% 30.12 in 10.0 mi NNE 9.2 mph - N/A   Overcast
9:55 PM 24.8 °F 19.1 °F 19.4 °F 80% 30.12 in 10.0 mi North 4.6 mph - N/A   Overcast
10:15 PM 24.8 °F 15.3 °F 19.4 °F 80% 30.13 in 10.0 mi North 9.2 mph - N/A   Overcast
10:35 PM 24.8 °F 14.6 °F 21.2 °F 86% 30.14 in 10.0 mi NNE 10.4 mph - N/A   Overcast
10:55 PM 24.8 °F 13.4 °F 19.4 °F 80% 30.14 in 10.0 mi North 12.7 mph 17.3 mph N/A   Overcast
11:15 PM 23.0 °F 12.4 °F 19.4 °F 86% 30.15 in 10.0 mi North 10.4 mph 16.1 mph N/A   Overcast
11:35 PM 23.0 °F 14.7 °F 19.4 °F 86% 30.15 in 10.0 mi North 6.9 mph 16.1 mph N/A   Overcast
11:55 PM 23.0 °F 13.1 °F 19.4 °F 86% 30.16 in 10.0 mi North 9.2 mph - N/A   Overcast